Tracking 28052 objects as of 24-Sep-2023
HD Live streaming from Space Station
objects crossing your sky now

STARLINK-6042

Track STARLINK-6042 now!
10-day predictions
STARLINK-6042 is classified as:


NORAD ID: 56808
Int'l Code: 2023-078AT
Perigee: 353.8 km
Apogee: 360.5 km
Inclination: 70.0 °
Period: 91.5 minutes
Semi major axis: 6728 km
RCS: Unknown
Launch date: May 31, 2023
Source: United States (US)
Launch site: AIR FORCE WESTERN TEST RANGE (AFWTR)
Your satellite tracking list
Your tracking list is empty




NASA's NSSDC Master Catalog

Two Line Element Set (TLE):
1 56808U 23078AT  23266.90968374  .00089072  00000-0  64246-3 0  9993
2 56808  69.9979  87.9151 0004999 260.7116  99.3516 15.73117269 18467
Source of the keplerian elements: AFSPC